Flag for Brazil Weather past 2 weeks in Niterói, Rio de Janeiro, Brazil

Now
73 °F

Sunny.


Feels Like: 75 °F
Forecast: 71 / 83 °F
Wind: 1 mph from Northeast

Location: Rio De Janeiro Airport

Current Time: Oct 25, 2014 at 10:01:32 AM

Latest Report: Oct 25, 2014 at 9:00 AM


Visibility: 10 mi

Pressure: 29.95 "Hg

Humidity: 74%

Dew point: 64 °F

Location of NiteróiLocation

Historic Weather in Niterói — Graph

°F

Niterói temperature yesterday

Maximum temperature yesterday: 82 °F (at 3:00 PM)
Minimum temperature yesterday: 68 °F (at 6:00 AM)
Average temperature yesterday: 76 °F

Past Weeks' High & Low Weather Summary

 TemperatureHumidityPressure
High91 °F (Oct 13, 12:00 PM)100% (Oct 12, 6:00 AM)30.21 "Hg (Oct 12, 6:00 AM)
Low64 °F (Oct 12, 11:00 PM)40% (Oct 10, 11:00 AM)29.68 "Hg (Oct 19, 4:00 PM)
Average76 °F75%29.98 "Hg
* Reported Oct 10 8:00 AM — Oct 25 9:00 AM, Niterói, Weather by CustomWeather, © 2014

Note: Actual official high and low records may vary slightly from our data, if they occured in-between our weather recording intervals... More about our weather records

Advertising

Niterói weather history for previous 24 hours

 ConditionsComfort  
Time TempWeatherWind HumidityBarometerVisibility
9:00 AM
Oct 25
73 °FSunny.1 mph74%29.95 "Hg10 mi
8:00 AM75 °FSunny.3 mph69%29.92 "Hg10 mi
7:00 AM72 °FSunny.No wind78%29.89 "Hg10 mi
6:00 AM70 °FClear.2 mph83%29.89 "Hg10 mi
5:55 AM72 °FClear.2 mph78%29.89 "Hg10 mi
11:00 PM
Oct 24
73 °FClear.3 mph74%29.92 "Hg10 mi
10:00 PM73 °FClear.5 mph74%29.92 "Hg10 mi
9:00 PM75 °FClear.6 mph69%29.89 "Hg10 mi
8:00 PM75 °FClear.10 mph69%29.89 "Hg10 mi
7:00 PM75 °FClear.14 mph74%29.89 "Hg10 mi
6:00 PM77 °FSunny.17 mph69%29.86 "Hg10 mi
5:00 PM77 °FSunny.21 mph69%29.86 "Hg10 mi
4:00 PM81 °FSunny.17 mph62%29.89 "Hg10 mi
3:00 PM82 °FSunny.16 mph58%29.92 "Hg10 mi
2:00 PM81 °FSunny.15 mph62%29.95 "Hg10 mi
1:00 PM77 °FSunny.14 mph69%29.98 "Hg10 mi
12:00 PM77 °FSunny.13 mph65%29.98 "Hg10 mi
11:00 AM81 °FSunny.5 mph51%30.01 "Hg10 mi
10:00 AM75 °FSunny.5 mph69%30.01 "Hg10 mi
Weather by CustomWeather, © 2014

See weather overviewHow to use our weather pages